Location: Eschertshofen
(49.3064°N, 11.5756°E)
Time: 03:59:06
(UTC+00:00)

Lacrosse 4 Rocket - Pass Details

Date: 18 September 2020
Orbit: 543 x 615 km, 68.0° (Epoch: 18 October)

Event Time Altitude Azimuth Distance (km) Brightness Sun altitude
Rises 20:58:39 0° 328° (NNW) 2,717 6.0 -32.2°
Reaches altitude 10° 21:00:52 10° 332° (NNW) 1,823 4.8 -32.4°
Enters shadow 21:02:13 20° 337° (NNW) 1,304 3.8 -32.5°
